Time,TemperatureF,DewpointF,PressureIn,WindDirection,WindDirectionDegrees,WindSpeedMPH,WindSpeedGustMPH,Humidity,HourlyPrecipIn,Conditions,Clouds,dailyrainin,SoftwareType,DateUTC
2013-08-16 00:01:00,73.9,73.0,29.97,NE,45,0.0,0.0,97,0.00,BKN,,0.47,WeatherDisplay:10.37,2013-08-16 04:01:00,
2013-08-16 00:06:00,73.9,73.0,29.97,NE,45,0.0,0.0,97,0.00,RA,,0.00,WeatherDisplay:10.37,2013-08-16 04:06:00,
2013-08-16 00:11:00,73.8,72.9,29.97,NE,45,0.0,0.0,97,0.00,RA,,0.00,WeatherDisplay:10.37,2013-08-16 04:11:00,
2013-08-16 00:16:00,73.8,72.9,29.97,NE,45,0.0,0.0,97,0.00,RA,,0.00,WeatherDisplay:10.37,2013-08-16 04:16:00,
2013-08-16 00:21:00,73.6,72.7,29.97,NE,45,0.0,0.0,97,0.00,RA,,0.00,WeatherDisplay:10.37,2013-08-16 04:21:00,
2013-08-16 00:26:00,73.4,72.5,29.97,NE,45,0.0,0.0,97,0.00,RA,,0.00,WeatherDisplay:10.37,2013-08-16 04:26:00,
2013-08-16 00:31:00,73.2,72.3,29.97,NE,45,0.0,0.0,97,0.00,BKN,,0.00,WeatherDisplay:10.37,2013-08-16 04:31:00,
2013-08-16 00:36:00,73.2,72.3,29.97,NE,45,0.0,0.0,97,0.00,BKN,,0.00,WeatherDisplay:10.37,2013-08-16 04:36:00,
2013-08-16 00:41:00,73.2,72.3,29.97,NE,45,0.0,0.0,97,0.00,BKN,,0.00,WeatherDisplay:10.37,2013-08-16 04:41:00,
2013-08-16 00:46:00,73.0,72.1,29.97,NE,45,0.0,0.0,97,0.00,BKN,,0.00,WeatherDisplay:10.37,2013-08-16 04:46:00,
2013-08-16 00:51:00,73.0,72.1,29.97,NE,45,0.0,0.0,97,0.00,BKN,,0.00,WeatherDisplay:10.37,2013-08-16 04:51:00,
2013-08-16 00:56:00,72.9,72.0,29.97,NE,45,0.0,0.0,97,0.00,BKN,,0.00,WeatherDisplay:10.37,2013-08-16 04:56:00,
2013-08-16 01:01:00,73.0,72.1,29.97,NE,45,0.0,0.0,97,0.00,BKN,,0.00,WeatherDisplay:10.37,2013-08-16 05:01:00,
2013-08-16 01:06:00,72.9,72.0,29.97,NE,45,0.0,0.0,97,0.00,BKN,,0.00,WeatherDisplay:10.37,2013-08-16 05:06:00,
2013-08-16 01:11:00,72.9,72.0,29.97,NE,45,0.0,0.0,97,0.00,BKN,,0.00,WeatherDisplay:10.37,2013-08-16 05:11:00,
2013-08-16 01:19:00,73.0,72.1,29.96,NE,45,0.0,0.0,97,0.00,BKN,,0.00,WeatherDisplay:10.37,2013-08-16 05:19:00,
2013-08-16 01:24:00,73.0,72.1,29.97,NE,45,0.0,0.0,97,0.00,BKN,,0.00,WeatherDisplay:10.37,2013-08-16 05:24:00,
2013-08-16 01:29:00,73.0,72.1,29.96,NE,45,0.0,0.0,97,0.00,BKN,,0.00,WeatherDisplay:10.37,2013-08-16 05:29:00,
2013-08-16 01:34:00,73.0,72.1,29.96,NE,45,0.0,0.0,97,0.00,BKN,,0.00,WeatherDisplay:10.37,2013-08-16 05:34:00,
2013-08-16 01:39:00,73.0,72.1,29.96,NE,45,0.0,0.0,97,0.00,BKN,,0.00,WeatherDisplay:10.37,2013-08-16 05:39:00,
2013-08-16 01:44:00,73.0,72.1,29.96,NE,45,0.0,0.0,97,0.00,BKN,,0.00,WeatherDisplay:10.37,2013-08-16 05:44:00,
2013-08-16 01:49:00,73.0,72.1,29.96,NE,45,0.0,0.0,97,0.00,BKN,,0.00,WeatherDisplay:10.37,2013-08-16 05:49:00,
2013-08-16 01:54:00,73.0,72.1,29.96,NE,45,0.0,0.0,97,0.00,BKN,,0.00,WeatherDisplay:10.37,2013-08-16 05:54:00,
2013-08-16 01:59:00,73.0,72.1,29.96,NE,45,0.0,0.0,97,0.00,BKN,,0.00,WeatherDisplay:10.37,2013-08-16 05:59:00,
2013-08-16 02:04:00,73.0,72.1,29.95,NE,45,0.0,0.0,97,0.00,BKN,,0.00,WeatherDisplay:10.37,2013-08-16 06:04:00,
2013-08-16 02:09:00,73.0,72.1,29.95,NE,45,0.0,0.0,97,0.00,BKN,,0.00,WeatherDisplay:10.37,2013-08-16 06:09:00,
2013-08-16 02:14:00,73.0,72.1,29.95,NE,45,0.0,0.0,97,0.00,BKN,,0.00,WeatherDisplay:10.37,2013-08-16 06:14:00,
2013-08-16 02:19:00,73.0,72.1,29.95,NE,45,0.0,0.0,97,0.00,BKN,,0.00,WeatherDisplay:10.37,2013-08-16 06:19:00,
2013-08-16 02:24:00,73.0,72.1,29.95,NE,45,0.0,0.0,97,0.00,BKN,,0.00,WeatherDisplay:10.37,2013-08-16 06:24:00,
2013-08-16 02:29:00,73.0,72.1,29.95,NE,45,0.0,0.0,97,0.00,BKN,,0.00,WeatherDisplay:10.37,2013-08-16 06:29:00,
2013-08-16 02:34:00,73.0,72.1,29.95,NE,45,0.0,0.0,97,0.00,BKN,,0.00,WeatherDisplay:10.37,2013-08-16 06:34:00,
2013-08-16 02:39:00,73.0,72.1,29.95,NE,45,0.0,0.0,97,0.00,BKN,,0.00,WeatherDisplay:10.37,2013-08-16 06:39:00,
2013-08-16 02:44:00,72.7,71.8,29.95,NE,45,0.0,0.0,97,0.00,BKN,,0.00,WeatherDisplay:10.37,2013-08-16 06:44:00,
2013-08-16 02:49:00,73.0,72.1,29.95,NE,45,0.0,0.0,97,0.00,BKN,,0.00,WeatherDisplay:10.37,2013-08-16 06:49:00,
2013-08-16 02:54:00,72.9,72.0,29.95,NE,45,0.0,0.0,97,0.00,BKN,,0.00,WeatherDisplay:10.37,2013-08-16 06:54:00,
2013-08-16 02:59:00,73.0,72.1,29.94,NE,45,0.0,0.0,97,0.00,BKN,,0.00,WeatherDisplay:10.37,2013-08-16 06:59:00,
2013-08-16 03:04:00,73.0,72.1,29.94,NE,45,0.0,0.0,97,0.00,BKN,,0.00,WeatherDisplay:10.37,2013-08-16 07:04:00,
2013-08-16 03:09:00,73.0,72.1,29.94,NE,45,0.0,0.0,97,0.00,BKN,,0.00,WeatherDisplay:10.37,2013-08-16 07:09:00,
2013-08-16 03:14:00,72.9,72.0,29.94,NE,45,0.0,0.0,97,0.00,BKN,,0.00,WeatherDisplay:10.37,2013-08-16 07:14:00,
2013-08-16 03:19:00,72.7,71.8,29.95,NE,45,0.0,0.0,97,0.00,BKN,,0.00,WeatherDisplay:10.37,2013-08-16 07:19:00,
2013-08-16 03:24:00,72.7,71.8,29.95,NE,45,0.0,0.0,97,0.00,BKN,,0.00,WeatherDisplay:10.37,2013-08-16 07:24:00,
2013-08-16 03:29:00,72.7,71.8,29.94,NE,45,0.0,0.0,97,0.00,BKN,,0.00,WeatherDisplay:10.37,2013-08-16 07:29:00,
2013-08-16 03:34:00,72.7,71.8,29.95,NE,45,0.0,0.0,97,0.00,BKN,,0.00,WeatherDisplay:10.37,2013-08-16 07:34:00,
2013-08-16 03:39:00,73.0,72.1,29.95,NE,45,0.0,0.0,97,0.00,BKN,,0.00,WeatherDisplay:10.37,2013-08-16 07:39:00,
2013-08-16 03:44:00,73.0,72.1,29.96,NE,45,0.0,0.0,97,0.00,BKN,,0.00,WeatherDisplay:10.37,2013-08-16 07:44:00,
2013-08-16 03:49:00,72.7,71.8,29.95,NE,45,0.0,0.0,97,0.00,BKN,,0.00,WeatherDisplay:10.37,2013-08-16 07:49:00,
2013-08-16 03:54:00,72.7,71.8,29.95,NE,45,0.0,0.0,97,0.00,BKN,,0.00,WeatherDisplay:10.37,2013-08-16 07:54:00,
2013-08-16 03:59:00,72.5,71.6,29.96,NE,45,0.0,0.0,97,0.00,BKN,,0.00,WeatherDisplay:10.37,2013-08-16 07:59:00,
2013-08-16 04:04:00,72.5,71.6,29.96,NE,45,0.0,0.0,97,0.00,BKN,,0.00,WeatherDisplay:10.37,2013-08-16 08:04:00,
2013-08-16 04:09:00,72.5,71.6,29.96,NE,45,0.0,0.0,97,0.00,BKN,,0.00,WeatherDisplay:10.37,2013-08-16 08:09:00,
2013-08-16 04:14:00,72.5,71.6,29.96,NE,45,0.0,0.0,97,0.00,BKN,,0.00,WeatherDisplay:10.37,2013-08-16 08:14:00,
2013-08-16 04:19:00,72.3,71.4,29.96,NE,45,0.0,0.0,97,0.00,SCT,,0.00,WeatherDisplay:10.37,2013-08-16 08:19:00,
2013-08-16 04:24:00,72.3,71.4,29.96,NE,45,0.0,0.0,97,0.00,SCT,,0.00,WeatherDisplay:10.37,2013-08-16 08:24:00,
2013-08-16 04:29:00,72.3,71.4,29.96,NE,45,0.0,0.0,97,0.00,SCT,,0.00,WeatherDisplay:10.37,2013-08-16 08:29:00,
2013-08-16 04:34:00,72.1,71.2,29.95,NE,45,0.0,0.0,97,0.00,SCT,,0.00,WeatherDisplay:10.37,2013-08-16 08:34:00,
2013-08-16 04:39:00,72.1,71.2,29.96,NE,45,0.0,0.0,97,0.00,SCT,,0.00,WeatherDisplay:10.37,2013-08-16 08:39:00,
2013-08-16 04:44:00,72.3,71.4,29.95,NE,45,0.0,0.0,97,0.00,SCT,,0.00,WeatherDisplay:10.37,2013-08-16 08:44:00,
2013-08-16 04:49:00,72.3,71.4,29.95,NE,45,0.0,0.0,97,0.00,SCT,,0.00,WeatherDisplay:10.37,2013-08-16 08:49:00,
2013-08-16 04:54:00,72.1,71.2,29.95,NE,45,0.0,0.0,97,0.00,SCT,,0.00,WeatherDisplay:10.37,2013-08-16 08:54:00,
2013-08-16 04:59:00,72.3,71.4,29.95,NE,45,0.0,0.0,97,0.00,SCT,,0.00,WeatherDisplay:10.37,2013-08-16 08:59:00,
2013-08-16 05:04:00,72.5,71.6,29.95,NE,45,0.0,0.0,97,0.00,SCT,,0.00,WeatherDisplay:10.37,2013-08-16 09:04:00,
2013-08-16 05:09:00,72.5,71.6,29.95,NE,45,0.0,0.0,97,0.00,SCT,,0.00,WeatherDisplay:10.37,2013-08-16 09:09:00,
2013-08-16 05:14:00,73.0,72.1,29.96,NE,45,0.0,0.0,97,0.00,SCT,,0.00,WeatherDisplay:10.37,2013-08-16 09:14:00,
2013-08-16 05:19:00,73.0,72.1,29.95,NE,45,0.0,0.0,97,0.00,SCT,,0.00,WeatherDisplay:10.37,2013-08-16 09:19:00,
2013-08-16 05:24:00,73.2,72.3,29.96,NE,45,0.0,0.0,97,0.00,SCT,,0.00,WeatherDisplay:10.37,2013-08-16 09:24:00,
2013-08-16 05:29:00,73.0,72.1,29.96,NE,45,0.0,0.0,97,0.00,SCT,,0.00,WeatherDisplay:10.37,2013-08-16 09:29:00,
2013-08-16 05:34:00,73.0,72.1,29.96,NE,45,0.0,0.0,97,0.00,SCT,,0.00,WeatherDisplay:10.37,2013-08-16 09:34:00,
2013-08-16 05:39:00,73.0,72.1,29.96,NE,45,0.0,0.0,97,0.00,SCT,,0.00,WeatherDisplay:10.37,2013-08-16 09:39:00,
2013-08-16 05:44:00,73.0,72.1,29.96,NE,45,0.0,0.0,97,0.00,SCT,,0.00,WeatherDisplay:10.37,2013-08-16 09:44:00,
2013-08-16 05:49:00,73.0,72.1,29.96,NE,45,0.0,0.0,97,0.00,SCT,,0.00,WeatherDisplay:10.37,2013-08-16 09:49:00,
2013-08-16 05:54:00,73.0,72.1,29.97,NE,45,0.0,0.0,97,0.00,SCT,,0.00,WeatherDisplay:10.37,2013-08-16 09:54:00,
2013-08-16 05:59:00,73.0,72.1,29.97,NE,45,0.0,0.0,97,0.00,SCT,,0.00,WeatherDisplay:10.37,2013-08-16 09:59:00,
2013-08-16 06:04:00,73.0,72.1,29.97,NE,45,0.0,0.0,97,0.00,SCT,,0.00,WeatherDisplay:10.37,2013-08-16 10:04:00,
2013-08-16 06:09:00,73.0,72.1,29.97,NE,45,0.0,0.0,97,0.00,SCT,,0.00,WeatherDisplay:10.37,2013-08-16 10:09:00,
2013-08-16 06:14:00,73.2,72.3,29.97,NE,45,0.0,0.0,97,0.00,SCT,,0.00,WeatherDisplay:10.37,2013-08-16 10:14:00,
2013-08-16 06:19:00,73.2,72.3,29.97,NE,45,0.0,0.0,97,0.00,SCT,,0.00,WeatherDisplay:10.37,2013-08-16 10:19:00,
2013-08-16 06:24:00,73.0,72.1,29.97,NE,45,0.0,0.0,97,0.00,SCT,,0.00,WeatherDisplay:10.37,2013-08-16 10:24:00,
2013-08-16 06:29:00,73.2,72.3,29.97,NE,45,0.0,0.0,97,0.00,SCT,,0.00,WeatherDisplay:10.37,2013-08-16 10:29:00,
2013-08-16 06:34:00,73.0,72.1,29.97,NE,45,0.0,0.0,97,0.00,SCT,,0.00,WeatherDisplay:10.37,2013-08-16 10:34:00,
2013-08-16 06:39:00,73.2,72.3,29.97,NE,45,0.0,0.0,97,0.00,SCT,,0.00,WeatherDisplay:10.37,2013-08-16 10:39:00,
2013-08-16 06:44:00,73.2,72.3,29.97,NE,45,0.0,0.0,97,0.00,SCT,,0.00,WeatherDisplay:10.37,2013-08-16 10:44:00,
2013-08-16 06:49:00,73.4,72.5,29.97,NE,45,0.0,0.0,97,0.00,SCT,,0.00,WeatherDisplay:10.37,2013-08-16 10:49:00,
2013-08-16 06:54:00,73.2,72.3,29.97,NE,45,0.0,0.0,97,0.00,SCT,,0.00,WeatherDisplay:10.37,2013-08-16 10:54:00,
2013-08-16 06:59:00,73.2,72.3,29.97,NE,45,0.0,0.0,97,0.00,BKN,,0.00,WeatherDisplay:10.37,2013-08-16 10:59:00,
2013-08-16 07:04:00,73.2,72.3,29.97,NE,45,0.0,0.0,97,0.00,BKN,,0.00,WeatherDisplay:10.37,2013-08-16 11:04:00,
2013-08-16 07:09:00,73.2,72.3,29.97,NE,45,0.0,0.0,97,0.00,BKN,,0.00,WeatherDisplay:10.37,2013-08-16 11:09:00,
2013-08-16 07:14:00,73.2,72.3,29.98,NE,45,0.0,0.0,97,0.00,BKN,,0.00,WeatherDisplay:10.37,2013-08-16 11:14:00,
2013-08-16 07:18:00,73.2,72.3,29.98,NE,45,0.0,0.0,97,0.00,BKN,,0.00,WeatherDisplay:10.37,2013-08-16 11:18:00,
2013-08-16 07:23:00,73.4,72.5,29.98,NE,45,0.0,0.0,97,0.00,BKN,,0.00,WeatherDisplay:10.37,2013-08-16 11:23:00,
2013-08-16 07:28:00,73.6,72.7,29.99,NE,45,0.0,0.0,97,0.00,BKN,,0.00,WeatherDisplay:10.37,2013-08-16 11:28:00,
2013-08-16 07:33:00,73.6,72.7,29.99,NE,45,0.0,0.0,97,0.00,BKN,,0.00,WeatherDisplay:10.37,2013-08-16 11:33:00,
2013-08-16 07:38:00,73.8,72.9,29.99,NE,45,0.0,0.0,97,0.00,BKN,,0.00,WeatherDisplay:10.37,2013-08-16 11:38:00,
2013-08-16 07:43:00,73.9,73.0,29.99,NE,45,0.0,0.0,97,0.00,BKN,,0.00,WeatherDisplay:10.37,2013-08-16 11:43:00,
2013-08-16 07:48:00,73.9,73.0,29.99,NE,45,0.0,0.0,97,0.00,BKN,,0.00,WeatherDisplay:10.37,2013-08-16 11:48:00,
2013-08-16 07:53:00,74.1,73.2,29.99,NE,45,0.0,0.0,97,0.00,BKN,,0.00,WeatherDisplay:10.37,2013-08-16 11:53:00,
2013-08-16 07:58:00,74.3,73.4,29.99,NE,45,0.0,0.0,97,0.00,BKN,,0.00,WeatherDisplay:10.37,2013-08-16 11:58:00,
2013-08-16 08:03:00,74.3,73.4,29.99,NE,45,0.0,0.0,97,0.00,BKN,,0.00,WeatherDisplay:10.37,2013-08-16 12:03:00,
2013-08-16 08:08:00,74.5,73.6,29.99,NE,45,0.0,0.0,97,0.00,BKN,,0.00,WeatherDisplay:10.37,2013-08-16 12:08:00,
2013-08-16 08:13:00,74.5,73.6,29.99,NE,45,0.0,0.0,97,0.00,BKN,,0.00,WeatherDisplay:10.37,2013-08-16 12:13:00,
2013-08-16 08:18:00,74.8,73.9,29.99,NE,45,0.0,0.0,97,0.00,BKN,,0.00,WeatherDisplay:10.37,2013-08-16 12:18:00,
2013-08-16 08:23:00,75.0,74.1,29.99,NE,45,0.0,0.0,97,0.00,BKN,,0.00,WeatherDisplay:10.37,2013-08-16 12:23:00,
2013-08-16 08:28:00,75.2,74.3,29.99,NE,45,0.0,0.0,97,0.00,BKN,,0.00,WeatherDisplay:10.37,2013-08-16 12:28:00,
2013-08-16 08:33:00,75.4,74.5,29.99,NE,45,0.0,0.0,97,0.00,BKN,,0.00,WeatherDisplay:10.37,2013-08-16 12:33:00,
2013-08-16 08:38:00,75.6,74.6,29.99,NE,45,0.0,0.0,97,0.00,BKN,,0.00,WeatherDisplay:10.37,2013-08-16 12:38:00,
2013-08-16 08:43:00,75.7,74.8,29.99,NE,45,0.0,0.0,97,0.00,BKN,,0.00,WeatherDisplay:10.37,2013-08-16 12:43:00,
2013-08-16 08:48:00,75.7,74.8,29.99,NE,45,0.0,0.0,97,0.00,BKN,,0.00,WeatherDisplay:10.37,2013-08-16 12:48:00,
2013-08-16 08:53:00,75.9,75.0,29.99,NE,45,0.0,0.0,97,0.00,BKN,,0.00,WeatherDisplay:10.37,2013-08-16 12:53:00,
2013-08-16 08:58:00,75.9,75.0,30.00,NE,45,0.0,0.0,97,0.00,BKN,,0.00,WeatherDisplay:10.37,2013-08-16 12:58:00,
2013-08-16 09:03:00,75.9,75.0,30.00,NE,45,0.0,0.0,97,0.00,BKN,,0.00,WeatherDisplay:10.37,2013-08-16 13:03:00,
2013-08-16 09:08:00,76.3,75.4,30.00,NE,45,0.0,0.0,97,0.00,BKN,,0.00,WeatherDisplay:10.37,2013-08-16 13:08:00,
2013-08-16 09:13:00,76.3,75.4,30.00,NE,45,0.0,0.0,97,0.00,BKN,,0.00,WeatherDisplay:10.37,2013-08-16 13:13:00,
2013-08-16 09:18:00,76.6,75.7,30.00,NE,45,0.0,0.0,97,0.00,BKN,,0.00,WeatherDisplay:10.37,2013-08-16 13:18:00,
2013-08-16 09:23:00,76.6,75.7,30.00,NE,45,0.0,0.0,97,0.00,BKN,,0.00,WeatherDisplay:10.37,2013-08-16 13:23:00,
2013-08-16 09:28:00,76.6,75.7,30.00,NE,45,0.0,0.0,97,0.00,BKN,,0.00,WeatherDisplay:10.37,2013-08-16 13:28:00,
2013-08-16 09:33:00,76.8,75.9,30.00,NE,45,0.0,0.0,97,0.00,BKN,,0.00,WeatherDisplay:10.37,2013-08-16 13:33:00,
2013-08-16 09:38:00,77.2,76.3,30.01,NE,45,0.0,0.0,97,0.00,BKN,,0.00,WeatherDisplay:10.37,2013-08-16 13:38:00,
2013-08-16 09:43:00,77.5,76.6,30.01,NE,45,0.0,0.0,97,0.00,BKN,,0.00,WeatherDisplay:10.37,2013-08-16 13:43:00,
2013-08-16 09:48:00,77.5,76.6,30.01,NE,45,0.0,0.0,97,0.00,BKN,,0.00,WeatherDisplay:10.37,2013-08-16 13:48:00,
2013-08-16 09:53:00,77.7,76.5,30.01,NE,45,0.0,0.0,96,0.00,BKN,,0.00,WeatherDisplay:10.37,2013-08-16 13:53:00,
2013-08-16 09:58:00,78.1,76.8,30.01,NE,45,0.0,0.0,96,0.00,BKN,,0.00,WeatherDisplay:10.37,2013-08-16 13:58:00,
2013-08-16 10:03:00,78.3,76.7,30.01,NE,45,0.0,0.0,95,0.00,BKN,,0.00,WeatherDisplay:10.37,2013-08-16 14:03:00,
2013-08-16 10:08:00,78.6,77.1,30.01,NE,45,0.0,0.0,95,0.00,BKN,,0.00,WeatherDisplay:10.37,2013-08-16 14:08:00,
2013-08-16 10:13:00,79.3,77.8,30.01,NE,45,0.0,0.0,95,0.00,BKN,,0.00,WeatherDisplay:10.37,2013-08-16 14:13:00,
2013-08-16 10:18:00,79.3,77.8,30.01,NE,45,0.0,0.0,95,0.00,BKN,,0.00,WeatherDisplay:10.37,2013-08-16 14:18:00,
2013-08-16 10:23:00,79.7,77.8,30.01,NE,45,0.0,0.0,94,0.00,BKN,,0.00,WeatherDisplay:10.37,2013-08-16 14:23:00,
2013-08-16 10:28:00,79.5,77.6,30.01,NE,45,0.0,0.0,94,0.00,BKN,,0.00,WeatherDisplay:10.37,2013-08-16 14:28:00,
2013-08-16 10:33:00,79.7,77.5,30.01,NE,45,0.0,0.0,93,0.00,BKN,,0.00,WeatherDisplay:10.37,2013-08-16 14:33:00,
2013-08-16 10:38:00,79.9,77.7,30.02,NE,45,0.0,0.0,93,0.00,BKN,,0.00,WeatherDisplay:10.37,2013-08-16 14:38:00,
2013-08-16 10:43:00,79.9,77.7,30.01,NE,45,0.0,0.0,93,0.00,BKN,,0.00,WeatherDisplay:10.37,2013-08-16 14:43:00,
2013-08-16 10:48:00,80.2,77.7,30.01,NE,45,0.0,0.0,92,0.00,BKN,,0.00,WeatherDisplay:10.37,2013-08-16 14:48:00,
2013-08-16 10:53:00,80.2,77.7,30.01,NE,45,0.0,0.0,92,0.00,BKN,,0.00,WeatherDisplay:10.37,2013-08-16 14:53:00,
2013-08-16 10:58:00,80.8,77.9,30.01,SW,225,0.0,0.0,91,0.00,BKN,,0.00,WeatherDisplay:10.37,2013-08-16 14:58:00,
2013-08-16 11:03:00,80.8,77.2,30.00,West,270,0.0,0.0,89,0.00,BKN,,0.00,WeatherDisplay:10.37,2013-08-16 15:03:00,
2013-08-16 11:08:00,81.3,78.1,30.00,West,270,0.0,0.0,90,0.00,BKN,,0.00,WeatherDisplay:10.37,2013-08-16 15:08:00,
2013-08-16 11:13:00,81.3,78.1,30.00,West,270,0.0,0.0,90,0.00,BKN,,0.00,WeatherDisplay:10.37,2013-08-16 15:13:00,
2013-08-16 11:18:00,84.2,78.1,30.00,West,270,0.0,0.0,82,0.00,BKN,,0.00,WeatherDisplay:10.37,2013-08-16 15:18:00,
2013-08-16 11:23:00,84.4,77.9,30.00,West,270,0.0,0.0,81,0.00,BKN,,0.00,WeatherDisplay:10.37,2013-08-16 15:23:00,
2013-08-16 11:28:00,84.6,77.7,30.00,SW,225,0.0,0.0,80,0.00,BKN,,0.00,WeatherDisplay:10.37,2013-08-16 15:28:00,
2013-08-16 11:33:00,84.4,77.5,30.00,SW,225,0.0,0.0,80,0.00,BKN,,0.00,WeatherDisplay:10.37,2013-08-16 15:33:00,
2013-08-16 11:38:00,85.5,78.6,30.00,SW,225,0.0,0.0,80,0.00,BKN,,0.00,WeatherDisplay:10.37,2013-08-16 15:38:00,
2013-08-16 11:43:00,85.6,78.0,30.00,SW,225,0.0,0.0,78,0.00,BKN,,0.00,WeatherDisplay:10.37,2013-08-16 15:43:00,
2013-08-16 11:48:00,85.5,78.2,30.00,SW,225,0.0,0.0,79,0.00,BKN,,0.00,WeatherDisplay:10.37,2013-08-16 15:48:00,
2013-08-16 11:53:00,85.3,78.0,30.00,SW,225,0.0,0.0,79,0.00,BKN,,0.00,WeatherDisplay:10.37,2013-08-16 15:53:00,
2013-08-16 11:58:00,85.6,78.4,30.00,SW,225,0.0,0.0,79,0.00,BKN,,0.00,WeatherDisplay:10.37,2013-08-16 15:58:00,
2013-08-16 12:03:00,85.1,77.5,29.99,SW,225,0.0,0.0,78,0.00,-RA,,0.00,WeatherDisplay:10.37,2013-08-16 16:03:00,
2013-08-16 12:08:00,84.7,77.1,29.99,SW,225,0.0,0.0,78,0.00,-RA,,0.00,WeatherDisplay:10.37,2013-08-16 16:08:00,
2013-08-16 12:13:00,84.7,77.5,29.99,SW,225,0.0,0.0,79,0.00,-RA,,0.00,WeatherDisplay:10.37,2013-08-16 16:13:00,
2013-08-16 12:18:00,85.6,77.2,29.99,SW,225,0.0,0.0,76,0.00,-RA,,0.00,WeatherDisplay:10.37,2013-08-16 16:18:00,
2013-08-16 12:23:00,85.8,77.4,29.99,SW,225,0.0,0.0,76,0.00,-RA,,0.00,WeatherDisplay:10.37,2013-08-16 16:23:00,
2013-08-16 12:28:00,85.8,77.4,29.99,SW,225,0.0,0.0,76,0.00,-RA,,0.00,WeatherDisplay:10.37,2013-08-16 16:28:00,
2013-08-16 12:33:00,85.8,78.2,29.99,SW,225,0.0,0.0,78,0.00,-RA,,0.00,WeatherDisplay:10.37,2013-08-16 16:33:00,
2013-08-16 12:38:00,86.4,77.9,29.99,SW,225,0.0,0.0,76,0.00,-RA,,0.00,WeatherDisplay:10.37,2013-08-16 16:38:00,
2013-08-16 12:43:00,86.2,77.3,29.98,NW,315,0.0,0.0,75,0.00,-RA,,0.00,WeatherDisplay:10.37,2013-08-16 16:43:00,
2013-08-16 12:48:00,86.0,77.5,29.98,NW,315,0.0,0.0,76,0.00,-RA,,0.00,WeatherDisplay:10.37,2013-08-16 16:48:00,
2013-08-16 12:53:00,86.4,77.9,29.98,NW,315,0.0,0.0,76,0.00,-RA,,0.00,WeatherDisplay:10.37,2013-08-16 16:53:00,
2013-08-16 12:58:00,86.4,76.3,29.98,NW,315,0.0,0.0,72,0.00,-RA,,0.00,WeatherDisplay:10.37,2013-08-16 16:58:00,
2013-08-16 13:03:00,86.7,77.4,29.98,NW,315,0.0,0.0,74,0.00,-RA,,0.00,WeatherDisplay:10.37,2013-08-16 17:03:00,
2013-08-16 13:08:00,86.7,77.4,29.98,NW,315,0.0,0.0,74,0.00,-RA,,0.00,WeatherDisplay:10.37,2013-08-16 17:08:00,
2013-08-16 13:13:00,86.7,77.8,29.97,NW,315,0.0,0.0,75,0.00,BKN,,0.00,WeatherDisplay:10.37,2013-08-16 17:13:00,
2013-08-16 13:18:00,86.5,78.5,29.97,NW,315,0.0,0.0,77,0.00,BKN,,0.00,WeatherDisplay:10.37,2013-08-16 17:18:00,
2013-08-16 13:23:00,86.5,78.5,29.97,NW,315,0.0,0.0,77,0.00,BKN,,0.00,WeatherDisplay:10.37,2013-08-16 17:23:00,
2013-08-16 13:28:00,86.5,78.1,29.97,NW,315,0.0,0.0,76,0.00,BKN,,0.00,WeatherDisplay:10.37,2013-08-16 17:28:00,
2013-08-16 13:33:00,86.7,77.0,29.97,NW,315,0.0,0.0,73,0.00,BKN,,0.00,WeatherDisplay:10.37,2013-08-16 17:33:00,
2013-08-16 13:38:00,86.7,77.0,29.97,NW,315,0.0,0.0,73,0.00,BKN,,0.00,WeatherDisplay:10.37,2013-08-16 17:38:00,
2013-08-16 13:43:00,86.4,77.1,29.97,NW,315,0.0,0.0,74,0.00,BKN,,0.00,WeatherDisplay:10.37,2013-08-16 17:43:00,
2013-08-16 13:48:00,86.9,77.2,29.97,NW,315,0.0,0.0,73,0.00,BKN,,0.00,WeatherDisplay:10.37,2013-08-16 17:48:00,
2013-08-16 13:53:00,88.5,78.8,29.97,South,180,0.0,0.0,73,0.00,BKN,,0.00,WeatherDisplay:10.37,2013-08-16 17:53:00,
2013-08-16 13:58:00,88.7,77.7,29.97,South,180,0.0,0.0,70,0.00,BKN,,0.00,WeatherDisplay:10.37,2013-08-16 17:58:00,
2013-08-16 14:03:00,89.1,77.6,29.96,SW,225,0.0,0.0,69,0.00,BKN,,0.00,WeatherDisplay:10.37,2013-08-16 18:03:00,
2013-08-16 14:08:00,89.4,77.9,29.96,SW,225,0.0,0.0,69,0.00,BKN,,0.00,WeatherDisplay:10.37,2013-08-16 18:08:00,
2013-08-16 14:13:00,89.4,77.9,29.96,SW,225,0.0,0.0,69,0.00,BKN,,0.00,WeatherDisplay:10.37,2013-08-16 18:13:00,
2013-08-16 14:18:00,89.6,78.5,29.96,South,180,0.0,0.0,70,0.00,BKN,,0.00,WeatherDisplay:10.37,2013-08-16 18:18:00,
2013-08-16 14:23:00,88.5,77.0,29.96,South,180,0.0,0.0,69,0.00,BKN,,0.00,WeatherDisplay:10.37,2013-08-16 18:23:00,
2013-08-16 14:28:00,88.7,78.1,29.96,South,180,0.0,0.0,71,0.00,BKN,,0.00,WeatherDisplay:10.37,2013-08-16 18:28:00,
2013-08-16 14:33:00,89.4,77.9,29.96,East,90,0.0,0.0,69,0.00,BKN,,0.00,WeatherDisplay:10.37,2013-08-16 18:33:00,
2013-08-16 14:38:00,89.8,77.4,29.95,SW,225,0.0,0.0,67,0.00,BKN,,0.00,WeatherDisplay:10.37,2013-08-16 18:38:00,
2013-08-16 14:43:00,89.6,78.1,29.95,SW,225,0.0,0.0,69,0.00,BKN,,0.00,WeatherDisplay:10.37,2013-08-16 18:43:00,
2013-08-16 14:48:00,89.6,78.1,29.95,NW,315,0.0,0.0,69,0.00,BKN,,0.00,WeatherDisplay:10.37,2013-08-16 18:48:00,
2013-08-16 14:53:00,90.0,78.0,29.95,East,90,0.0,0.0,68,0.00,BKN,,0.00,WeatherDisplay:10.37,2013-08-16 18:53:00,
2013-08-16 14:58:00,89.1,77.1,29.94,SW,225,0.0,0.0,68,0.00,BKN,,0.00,WeatherDisplay:10.37,2013-08-16 18:58:00,
2013-08-16 15:03:00,89.4,78.8,29.94,SW,225,0.0,0.0,71,0.00,BKN,,0.00,WeatherDisplay:10.37,2013-08-16 19:03:00,
2013-08-16 15:08:00,89.2,77.7,29.94,East,90,0.0,0.0,69,0.00,BKN,,0.00,WeatherDisplay:10.37,2013-08-16 19:08:00,
2013-08-16 15:13:00,89.8,78.7,29.93,East,90,0.0,0.0,70,0.00,BKN,,0.00,WeatherDisplay:10.37,2013-08-16 19:13:00,
2013-08-16 15:18:00,89.6,77.6,29.93,South,180,0.0,0.0,68,0.00,BKN,,0.00,WeatherDisplay:10.37,2013-08-16 19:18:00,
2013-08-16 15:23:00,89.6,77.2,29.93,West,270,0.0,0.0,67,0.00,BKN,,0.00,WeatherDisplay:10.37,2013-08-16 19:23:00,
2013-08-16 15:28:00,89.2,76.8,29.93,SW,225,0.0,0.0,67,0.00,BKN,,0.00,WeatherDisplay:10.37,2013-08-16 19:28:00,
2013-08-16 15:33:00,88.9,77.4,29.92,SW,225,0.0,0.0,69,0.00,BKN,,0.00,WeatherDisplay:10.37,2013-08-16 19:33:00,
2013-08-16 15:38:00,88.9,77.4,29.92,SW,225,0.0,0.0,69,0.00,BKN,,0.00,WeatherDisplay:10.37,2013-08-16 19:38:00,
2013-08-16 15:43:00,87.8,77.6,29.93,NE,45,0.0,0.0,72,0.00,BKN,,0.00,WeatherDisplay:10.37,2013-08-16 19:43:00,
2013-08-16 15:48:00,88.3,77.7,29.93,East,90,0.0,0.0,71,0.00,BKN,,0.00,WeatherDisplay:10.37,2013-08-16 19:48:00,
2013-08-16 15:53:00,89.2,78.6,29.92,NE,45,0.0,0.0,71,0.00,BKN,,0.00,WeatherDisplay:10.37,2013-08-16 19:53:00,
2013-08-16 15:58:00,89.4,78.3,29.92,SE,135,0.0,0.0,70,0.00,BKN,,0.00,WeatherDisplay:10.37,2013-08-16 19:58:00,
2013-08-16 16:03:00,89.4,78.3,29.92,SE,135,0.0,0.0,70,0.00,BKN,,0.00,WeatherDisplay:10.37,2013-08-16 20:03:00,
2013-08-16 16:08:00,88.9,75.6,29.92,SW,225,0.0,0.0,65,0.00,BKN,,0.00,WeatherDisplay:10.37,2013-08-16 20:08:00,
2013-08-16 16:13:00,88.9,75.6,29.92,SW,225,0.0,0.0,65,0.00,BKN,,0.00,WeatherDisplay:10.37,2013-08-16 20:13:00,
2013-08-16 16:18:00,88.0,77.0,29.93,South,180,0.0,0.0,70,0.00,BKN,,0.00,WeatherDisplay:10.37,2013-08-16 20:18:00,
2013-08-16 16:23:00,85.6,76.0,29.93,West,270,0.0,0.0,73,0.00,BKN,,0.00,WeatherDisplay:10.37,2013-08-16 20:23:00,
2013-08-16 16:28:00,84.9,75.3,29.92,SW,225,3.9,5.4,73,0.00,BKN,,0.00,WeatherDisplay:10.37,2013-08-16 20:28:00,
2013-08-16 16:33:00,83.7,75.3,29.93,West,270,3.8,5.8,76,0.00,BKN,,0.00,WeatherDisplay:10.37,2013-08-16 20:33:00,
2013-08-16 16:38:00,82.9,74.6,29.93,SW,225,4.4,4.4,76,0.00,BKN,,0.00,WeatherDisplay:10.37,2013-08-16 20:38:00,
2013-08-16 16:43:00,82.9,74.6,29.93,SW,225,4.4,4.4,76,0.00,BKN,,0.00,WeatherDisplay:10.37,2013-08-16 20:43:00,
2013-08-16 16:48:00,82.8,74.0,29.93,West,270,0.0,0.0,75,0.00,BKN,,0.00,WeatherDisplay:10.37,2013-08-16 20:48:00,
2013-08-16 16:53:00,82.6,74.2,29.93,South,180,0.0,0.0,76,0.00,BKN,,0.00,WeatherDisplay:10.37,2013-08-16 20:53:00,
2013-08-16 16:58:00,82.4,74.5,29.93,South,180,0.0,0.0,77,0.00,BKN,,0.00,WeatherDisplay:10.37,2013-08-16 20:58:00,
2013-08-16 17:03:00,82.4,74.5,29.93,SE,135,0.0,0.0,77,0.00,BKN,,0.00,WeatherDisplay:10.37,2013-08-16 21:03:00,
2013-08-16 17:08:00,82.6,75.0,29.93,SE,135,0.0,0.0,78,0.00,BKN,,0.00,WeatherDisplay:10.37,2013-08-16 21:08:00,
2013-08-16 17:13:00,82.6,75.0,29.93,SE,135,0.0,0.0,78,0.00,BKN,,0.00,WeatherDisplay:10.37,2013-08-16 21:13:00,
2013-08-16 17:18:00,82.6,75.0,29.94,SE,135,0.0,0.0,78,0.00,BKN,,0.00,WeatherDisplay:10.37,2013-08-16 21:18:00,
2013-08-16 17:23:00,82.6,75.0,29.93,SE,135,0.0,0.0,78,0.00,BKN,,0.00,WeatherDisplay:10.37,2013-08-16 21:23:00,
2013-08-16 17:28:00,82.6,75.0,29.93,SE,135,0.0,0.0,78,0.00,BKN,,0.00,WeatherDisplay:10.37,2013-08-16 21:28:00,
2013-08-16 17:33:00,83.3,75.7,29.93,SE,135,0.0,0.0,78,0.00,BKN,,0.00,WeatherDisplay:10.37,2013-08-16 21:33:00,
2013-08-16 17:38:00,83.8,76.2,29.94,SE,135,0.0,0.0,78,0.00,BKN,,0.00,WeatherDisplay:10.37,2013-08-16 21:38:00,
2013-08-16 17:43:00,83.8,76.2,29.94,SE,135,0.0,0.0,78,0.00,BKN,,0.00,WeatherDisplay:10.37,2013-08-16 21:43:00,
2013-08-16 17:48:00,83.8,76.6,29.95,NE,45,0.0,0.0,79,0.00,BKN,,0.00,WeatherDisplay:10.37,2013-08-16 21:48:00,
2013-08-16 17:53:00,83.5,76.7,29.95,NE,45,0.0,0.0,80,0.00,BKN,,0.00,WeatherDisplay:10.37,2013-08-16 21:53:00,
2013-08-16 17:58:00,82.9,76.5,29.95,SE,135,0.0,0.0,81,0.00,BKN,,0.00,WeatherDisplay:10.37,2013-08-16 21:58:00,
2013-08-16 18:03:00,82.6,76.2,29.96,SE,135,0.0,0.0,81,0.00,BKN,,0.00,WeatherDisplay:10.37,2013-08-16 22:03:00,
2013-08-16 18:08:00,82.4,76.3,29.96,SE,135,0.0,0.0,82,0.00,BKN,,0.00,WeatherDisplay:10.37,2013-08-16 22:08:00,
2013-08-16 18:13:00,81.9,76.2,29.96,SE,135,0.0,0.0,83,0.00,BKN,,0.00,WeatherDisplay:10.37,2013-08-16 22:13:00,
2013-08-16 18:18:00,81.9,76.2,29.96,SE,135,0.0,0.0,83,0.00,BKN,,0.00,WeatherDisplay:10.37,2013-08-16 22:18:00,
2013-08-16 18:23:00,81.3,76.4,29.96,SE,135,0.0,0.0,85,0.00,BKN,,0.00,WeatherDisplay:10.37,2013-08-16 22:23:00,
2013-08-16 18:28:00,81.1,76.2,29.96,SE,135,0.0,0.0,85,0.00,BKN,,0.00,WeatherDisplay:10.37,2013-08-16 22:28:00,
2013-08-16 18:33:00,81.0,76.4,29.96,SE,135,0.0,0.0,86,0.00,BKN,,0.00,WeatherDisplay:10.37,2013-08-16 22:33:00,
2013-08-16 18:38:00,81.0,76.7,29.97,SE,135,0.0,0.0,87,0.00,BKN,,0.00,WeatherDisplay:10.37,2013-08-16 22:38:00,
2013-08-16 18:43:00,80.8,76.5,29.97,SE,135,0.0,0.0,87,0.00,BKN,,0.00,WeatherDisplay:10.37,2013-08-16 22:43:00,
2013-08-16 18:48:00,80.8,76.5,29.97,SE,135,0.0,0.0,87,0.00,BKN,,0.00,WeatherDisplay:10.37,2013-08-16 22:48:00,
2013-08-16 18:53:00,81.0,76.7,29.97,SE,135,0.0,0.0,87,0.00,BKN,,0.00,WeatherDisplay:10.37,2013-08-16 22:53:00,
2013-08-16 18:58:00,81.0,76.7,29.97,SE,135,0.0,0.0,87,0.00,BKN,,0.00,WeatherDisplay:10.37,2013-08-16 22:58:00,
2013-08-16 19:03:00,80.6,76.4,29.97,SE,135,0.0,0.0,87,0.00,BKN,,0.00,WeatherDisplay:10.37,2013-08-16 23:03:00,
2013-08-16 19:08:00,80.4,76.5,29.97,SE,135,0.0,0.0,88,0.00,OVC,,0.00,WeatherDisplay:10.37,2013-08-16 23:08:00,
2013-08-16 19:13:00,80.4,76.9,29.97,SE,135,0.0,0.0,89,0.00,OVC,,0.00,WeatherDisplay:10.37,2013-08-16 23:13:00,
2013-08-16 19:18:00,80.4,76.9,29.97,SE,135,0.0,0.0,89,0.00,OVC,,0.00,WeatherDisplay:10.37,2013-08-16 23:18:00,
2013-08-16 19:23:00,80.2,76.7,29.97,SE,135,0.0,0.0,89,0.00,OVC,,0.00,WeatherDisplay:10.37,2013-08-16 23:23:00,
2013-08-16 19:28:00,80.2,76.7,29.97,SE,135,0.0,0.0,89,0.00,OVC,,0.00,WeatherDisplay:10.37,2013-08-16 23:28:00,
2013-08-16 19:33:00,80.2,77.0,29.97,SE,135,0.0,0.0,90,0.00,OVC,,0.00,WeatherDisplay:10.37,2013-08-16 23:33:00,
2013-08-16 19:38:00,80.2,77.0,29.97,SE,135,0.0,0.0,90,0.00,OVC,,0.00,WeatherDisplay:10.37,2013-08-16 23:38:00,
2013-08-16 19:43:00,80.2,77.0,29.97,SE,135,0.0,0.0,90,0.00,OVC,,0.00,WeatherDisplay:10.37,2013-08-16 23:43:00,
2013-08-16 19:48:00,79.9,76.7,29.97,SE,135,0.0,0.0,90,0.00,OVC,,0.00,WeatherDisplay:10.37,2013-08-16 23:48:00,
2013-08-16 19:53:00,79.9,77.0,29.97,SE,135,0.0,0.0,91,0.00,OVC,,0.00,WeatherDisplay:10.37,2013-08-16 23:53:00,
2013-08-16 19:58:00,80.1,77.2,29.97,SE,135,0.0,0.0,91,0.00,OVC,,0.00,WeatherDisplay:10.37,2013-08-16 23:58:00,
2013-08-16 20:03:00,79.9,77.0,29.98,SE,135,0.0,0.0,91,0.00,OVC,,0.00,WeatherDisplay:10.37,2013-08-17 00:03:00,
2013-08-16 20:08:00,79.7,77.2,29.98,SE,135,0.0,0.0,92,0.00,OVC,,0.00,WeatherDisplay:10.37,2013-08-17 00:08:00,
2013-08-16 20:13:00,79.7,77.2,29.98,SE,135,0.0,0.0,92,0.00,OVC,,0.00,WeatherDisplay:10.37,2013-08-17 00:13:00,
2013-08-16 20:18:00,79.5,77.0,29.98,SE,135,0.0,0.0,92,0.00,OVC,,0.00,WeatherDisplay:10.37,2013-08-17 00:18:00,
2013-08-16 20:23:00,79.3,76.8,29.99,SE,135,0.0,0.0,92,0.00,OVC,,0.00,WeatherDisplay:10.37,2013-08-17 00:23:00,
2013-08-16 20:28:00,79.3,76.8,29.99,SE,135,0.0,0.0,92,0.00,OVC,,0.00,WeatherDisplay:10.37,2013-08-17 00:28:00,
2013-08-16 20:33:00,79.2,76.6,29.99,SE,135,0.0,0.0,92,0.00,OVC,,0.00,WeatherDisplay:10.37,2013-08-17 00:33:00,
2013-08-16 20:38:00,79.2,76.6,30.00,SE,135,0.0,0.0,92,0.00,OVC,,0.00,WeatherDisplay:10.37,2013-08-17 00:38:00,
2013-08-16 20:43:00,79.0,76.5,30.00,SE,135,0.0,0.0,92,0.00,OVC,,0.00,WeatherDisplay:10.37,2013-08-17 00:43:00,
2013-08-16 20:48:00,79.0,76.8,30.00,SE,135,0.0,0.0,93,0.00,OVC,,0.00,WeatherDisplay:10.37,2013-08-17 00:48:00,
2013-08-16 20:53:00,79.0,76.8,30.00,SE,135,0.0,0.0,93,0.00,OVC,,0.00,WeatherDisplay:10.37,2013-08-17 00:53:00,
2013-08-16 20:58:00,78.8,76.6,30.00,SE,135,0.0,0.0,93,0.00,OVC,,0.00,WeatherDisplay:10.37,2013-08-17 00:58:00,
2013-08-16 21:03:00,78.6,76.7,30.00,SE,135,0.0,0.0,94,0.00,OVC,,0.00,WeatherDisplay:10.37,2013-08-17 01:03:00,
2013-08-16 21:08:00,78.6,76.7,30.00,SE,135,0.0,0.0,94,0.00,OVC,,0.00,WeatherDisplay:10.37,2013-08-17 01:08:00,
2013-08-16 21:10:00,78.6,76.7,30.01,SE,135,0.0,0.0,94,0.00,OVC,,0.00,WeatherDisplay:10.37,2013-08-17 01:10:00,
2013-08-16 21:13:00,78.6,76.7,30.01,SE,135,0.0,0.0,94,0.00,OVC,,0.00,WeatherDisplay:10.37,2013-08-17 01:13:00,
2013-08-16 21:18:00,78.6,76.7,30.01,SE,135,0.0,0.0,94,0.00,OVC,,0.00,WeatherDisplay:10.37,2013-08-17 01:18:00,
2013-08-16 21:23:00,78.4,76.6,30.01,SE,135,0.0,0.0,94,0.00,OVC,,0.00,WeatherDisplay:10.37,2013-08-17 01:23:00,
2013-08-16 21:28:00,78.4,76.6,30.01,SE,135,0.0,0.0,94,0.00,-RA,,0.00,WeatherDisplay:10.37,2013-08-17 01:28:00,
2013-08-16 21:33:00,78.6,76.7,30.02,SE,135,0.0,0.0,94,0.00,-RA,,0.00,WeatherDisplay:10.37,2013-08-17 01:33:00,
2013-08-16 21:38:00,78.6,76.7,30.02,SE,135,0.0,0.0,94,0.00,-RA,,0.00,WeatherDisplay:10.37,2013-08-17 01:38:00,
2013-08-16 21:43:00,78.6,76.7,30.02,SE,135,0.0,0.0,94,0.00,-RA,,0.00,WeatherDisplay:10.37,2013-08-17 01:43:00,
2013-08-16 21:48:00,78.4,76.6,30.02,SE,135,0.0,0.0,94,0.00,-RA,,0.00,WeatherDisplay:10.37,2013-08-17 01:48:00,
2013-08-16 21:53:00,78.4,76.6,30.02,SE,135,0.0,0.0,94,0.00,-RA,,0.00,WeatherDisplay:10.37,2013-08-17 01:53:00,
2013-08-16 21:58:00,78.4,76.6,30.02,SE,135,0.0,0.0,94,0.00,-RA,,0.00,WeatherDisplay:10.37,2013-08-17 01:58:00,
2013-08-16 22:03:00,78.4,76.6,30.02,SE,135,0.0,0.0,94,0.00,-RA,,0.00,WeatherDisplay:10.37,2013-08-17 02:03:00,
2013-08-16 22:08:00,78.4,76.6,30.02,SE,135,0.0,0.0,94,0.00,-RA,,0.00,WeatherDisplay:10.37,2013-08-17 02:08:00,
2013-08-16 22:13:00,78.1,76.2,30.02,SE,135,0.0,0.0,94,0.00,-RA,,0.00,WeatherDisplay:10.37,2013-08-17 02:13:00,
2013-08-16 22:18:00,78.3,76.7,30.02,SE,135,0.0,0.0,95,0.00,-RA,,0.00,WeatherDisplay:10.37,2013-08-17 02:18:00,
2013-08-16 22:23:00,78.3,76.7,30.02,SE,135,0.0,0.0,95,0.00,-RA,,0.00,WeatherDisplay:10.37,2013-08-17 02:23:00,
2013-08-16 22:28:00,78.1,76.5,30.03,SE,135,0.0,0.0,95,0.00,OVC,,0.00,WeatherDisplay:10.37,2013-08-17 02:28:00,
2013-08-16 22:33:00,78.1,76.5,30.03,SE,135,0.0,0.0,95,0.00,OVC,,0.00,WeatherDisplay:10.37,2013-08-17 02:33:00,
2013-08-16 22:38:00,78.1,76.5,30.03,SE,135,0.0,0.0,95,0.00,OVC,,0.00,WeatherDisplay:10.37,2013-08-17 02:38:00,
2013-08-16 22:43:00,78.1,76.5,30.03,SE,135,0.0,0.0,95,0.00,OVC,,0.00,WeatherDisplay:10.37,2013-08-17 02:43:00,
2013-08-16 22:48:00,78.1,76.5,30.03,SE,135,0.0,0.0,95,0.00,OVC,,0.00,WeatherDisplay:10.37,2013-08-17 02:48:00,
2013-08-16 22:53:00,78.1,76.5,30.03,SE,135,0.0,0.0,95,0.00,OVC,,0.00,WeatherDisplay:10.37,2013-08-17 02:53:00,
2013-08-16 22:58:00,78.3,76.7,30.03,SE,135,0.0,0.0,95,0.00,OVC,,0.00,WeatherDisplay:10.37,2013-08-17 02:58:00,
2013-08-16 23:03:00,78.3,76.7,30.03,SE,135,0.0,0.0,95,0.00,OVC,,0.00,WeatherDisplay:10.37,2013-08-17 03:03:00,
2013-08-16 23:08:00,78.4,76.9,30.02,SE,135,0.0,0.0,95,0.00,OVC,,0.00,WeatherDisplay:10.37,2013-08-17 03:08:00,
2013-08-16 23:13:00,78.4,76.9,30.03,SE,135,0.0,0.0,95,0.00,OVC,,0.00,WeatherDisplay:10.37,2013-08-17 03:13:00,
2013-08-16 23:18:00,78.4,76.9,30.02,SE,135,0.0,0.0,95,0.00,OVC,,0.00,WeatherDisplay:10.37,2013-08-17 03:18:00,
2013-08-16 23:23:00,78.4,76.9,30.03,SE,135,0.0,0.0,95,0.00,OVC,,0.00,WeatherDisplay:10.37,2013-08-17 03:23:00,
2013-08-16 23:28:00,78.4,76.9,30.02,SE,135,0.0,0.0,95,0.00,OVC,,0.00,WeatherDisplay:10.37,2013-08-17 03:28:00,
2013-08-16 23:29:00,78.4,76.9,30.02,SE,135,0.0,0.0,95,0.00,OVC,,0.00,WeatherDisplay:10.37,2013-08-17 03:29:00,
2013-08-16 23:33:00,78.4,76.9,30.02,SE,135,0.0,0.0,95,0.00,OVC,,0.00,WeatherDisplay:10.37,2013-08-17 03:33:00,
2013-08-16 23:38:00,78.4,76.9,30.02,SE,135,0.0,0.0,95,0.00,OVC,,0.00,WeatherDisplay:10.37,2013-08-17 03:38:00,
2013-08-16 23:42:00,78.4,76.9,30.02,SE,135,0.0,0.0,95,0.00,OVC,,0.00,WeatherDisplay:10.37,2013-08-17 03:42:00,
2013-08-16 23:43:00,78.4,76.9,30.02,SE,135,0.0,0.0,95,0.00,OVC,,0.00,WeatherDisplay:10.37,2013-08-17 03:43:00,
2013-08-16 23:48:00,78.4,76.9,30.02,SE,135,0.0,0.0,95,0.00,OVC,,0.00,WeatherDisplay:10.37,2013-08-17 03:48:00,
2013-08-16 23:53:00,78.4,76.9,30.02,SE,135,0.0,0.0,95,0.00,OVC,,0.00,WeatherDisplay:10.37,2013-08-17 03:53:00,
2013-08-16 23:58:00,78.4,76.9,30.02,SE,135,0.0,0.0,95,0.00,OVC,,0.00,WeatherDisplay:10.37,2013-08-17 03:58:00,